• In Uzbekistan
  • List of Countries
  • For 7 days
  • Water Temperature
  • Satellite Maps
  • Weather Map
  • Weather Widgets
  • user-avatar
    Login

    Hourly Weather Oran

    Today, 3 December, Saturday

    Time Temperature Precipitation Wind Pressure Humidity
    00:00 +16°C° 0 mm 1 mps 751 mmHg 64%
    01:00 +16°C° 0 mm 1 mps 751 mmHg 66%
    02:00 +16°C° 0 mm 1 mps 751 mmHg 68%
    03:00 +16°C° 0 mm 1 mps 750 mmHg 70%
    04:00 +15°C° 0.1 mm 1 mps 750 mmHg 72%
    05:00 +15°C° 0.1 mm 1 mps 750 mmHg 75%
    06:00 +15°C° 0 mm 1 mps 750 mmHg 74%
    07:00 +16°C° 0 mm 2 mps 750 mmHg 71%
    08:00 +17°C° 0 mm 2 mps 750 mmHg 67%
    09:00 +17°C° 0 mm 2 mps 750 mmHg 64%
    10:00 +19°C° 0 mm 2 mps 750 mmHg 59%
    11:00 +20°C° 0 mm 2 mps 749 mmHg 54%
    12:00 +23°C° 0 mm 2 mps 749 mmHg 49%
    13:00 +22°C° 0 mm 3 mps 749 mmHg 49%
    14:00 +22°C° 0 mm 3 mps 748 mmHg 48%
    15:00 +24°C° 0 mm 3 mps 748 mmHg 47%
    16:00 +21°C° 0 mm 4 mps 748 mmHg 53%
    17:00 +20°C° 0 mm 4 mps 748 mmHg 59%
    18:00 +18°C° 0 mm 4 mps 748 mmHg 65%
    19:00 +18°C° 0 mm 4 mps 748 mmHg 65%
    20:00 +18°C° 0 mm 4 mps 748 mmHg 65%
    21:00 +18°C° 0 mm 4 mps 748 mmHg 65%
    22:00 +18°C° 0 mm 4 mps 747 mmHg 64%
    23:00 +18°C° 0 mm 4 mps 747 mmHg 63%

    Tomorrow, 4 December, Sunday

    Time Temperature Precipitation Wind Pressure Humidity
    00:00 +17°C° 0 mm 5 mps 747 mmHg 63%
    01:00 +17°C° 0 mm 5 mps 746 mmHg 61%
    02:00 +17°C° 0 mm 4 mps 746 mmHg 59%
    03:00 +17°C° 0 mm 4 mps 746 mmHg 57%
    04:00 +17°C° 0 mm 4 mps 746 mmHg 57%
    05:00 +17°C° 0 mm 4 mps 746 mmHg 57%
    06:00 +17°C° 0 mm 4 mps 746 mmHg 57%
    07:00 +18°C° 0.2 mm 4 mps 747 mmHg 59%
    08:00 +18°C° 0.2 mm 3 mps 747 mmHg 60%
    09:00 +19°C° 0.2 mm 3 mps 747 mmHg 62%
    10:00 +19°C° 0 mm 3 mps 747 mmHg 58%
    11:00 +20°C° 0 mm 3 mps 747 mmHg 55%
    12:00 +21°C° 0 mm 3 mps 747 mmHg 52%
    13:00 +21°C° 0 mm 3 mps 747 mmHg 53%
    14:00 +21°C° 0 mm 2 mps 747 mmHg 53%
    15:00 +21°C° 0 mm 2 mps 747 mmHg 54%
    16:00 +20°C° 0 mm 1 mps 747 mmHg 61%
    17:00 +19°C° 0 mm 1 mps 748 mmHg 68%
    18:00 +16°C° 0 mm 1 mps 748 mmHg 75%
    19:00 +16°C° 0 mm 1 mps 748 mmHg 75%
    20:00 +16°C° 0 mm 1 mps 749 mmHg 75%
    21:00 +16°C° 0 mm 1 mps 749 mmHg 75%
    22:00 +16°C° 0 mm 1 mps 749 mmHg 75%
    23:00 +15°C° 0 mm 1 mps 749 mmHg 75%

    Day after tomorrow, 5 December, Monday

    Time Temperature Precipitation Wind Pressure Humidity
    00:00 +15°C° 0 mm 1 mps 749 mmHg 75%
    01:00 +15°C° 0 mm 1 mps 749 mmHg 74%
    02:00 +15°C° 0 mm 1 mps 749 mmHg 73%
    03:00 +15°C° 0 mm 2 mps 749 mmHg 72%
    04:00 +15°C° 0.1 mm 2 mps 749 mmHg 72%
    05:00 +15°C° 0.1 mm 2 mps 749 mmHg 71%
    06:00 +15°C° 0.1 mm 2 mps 750 mmHg 70%
    07:00 +16°C° 0 mm 2 mps 750 mmHg 69%
    08:00 +16°C° 0 mm 2 mps 751 mmHg 67%
    09:00 +17°C° 0 mm 2 mps 751 mmHg 66%
    10:00 +18°C° 0.1 mm 2 mps 751 mmHg 64%
    11:00 +19°C° 0.1 mm 2 mps 751 mmHg 61%
    12:00 +20°C° 0.1 mm 1 mps 751 mmHg 59%
    13:00 +19°C° 0.1 mm 2 mps 751 mmHg 60%
    14:00 +19°C° 0.1 mm 2 mps 751 mmHg 61%
    15:00 +19°C° 0.1 mm 2 mps 751 mmHg 63%
    16:00 +18°C° 0.1 mm 2 mps 752 mmHg 68%
    17:00 +18°C° 0.1 mm 1 mps 752 mmHg 73%
    18:00 +18°C° 0.1 mm 1 mps 753 mmHg 79%
    19:00 +16°C° 0 mm 1 mps 753 mmHg 80%
    20:00 +16°C° 0 mm 1 mps 754 mmHg 81%
    21:00 +16°C° 0 mm 1 mps 755 mmHg 82%
    22:00 +16°C° 0 mm 1 mps 755 mmHg 84%
    23:00 +15°C° 0 mm 1 mps 755 mmHg 87%

    6 December, Tuesday

    Time Temperature Precipitation Wind Pressure Humidity
    00:00 +15°C° 0 mm 1 mps 755 mmHg 89%
    01:00 +14°C° 0 mm 1 mps 755 mmHg 90%
    02:00 +14°C° 0 mm 1 mps 755 mmHg 91%
    03:00 +14°C° 0 mm 1 mps 755 mmHg 92%
    04:00 +14°C° 0 mm 1 mps 755 mmHg 92%
    05:00 +14°C° 0 mm 1 mps 755 mmHg 92%
    06:00 +14°C° 0 mm 1 mps 756 mmHg 93%
    07:00 +15°C° 0.2 mm 2 mps 756 mmHg 88%
    08:00 +16°C° 0.2 mm 2 mps 757 mmHg 84%
    09:00 +17°C° 0.2 mm 2 mps 757 mmHg 79%
    10:00 +17°C° 0.2 mm 3 mps 757 mmHg 77%
    11:00 +18°C° 0.2 mm 3 mps 757 mmHg 74%
    12:00 +18°C° 0.2 mm 3 mps 757 mmHg 72%
    13:00 +18°C° 0.1 mm 4 mps 757 mmHg 71%
    14:00 +19°C° 0.1 mm 4 mps 757 mmHg 70%
    15:00 +19°C° 0.1 mm 5 mps 757 mmHg 68%
    16:00 +17°C° 0.1 mm 5 mps 757 mmHg 75%
    17:00 +16°C° 0.1 mm 5 mps 758 mmHg 81%
    18:00 +15°C° 0.1 mm 4 mps 758 mmHg 87%
    19:00 +15°C° 0.1 mm 4 mps 758 mmHg 89%
    20:00 +14°C° 0.1 mm 4 mps 759 mmHg 91%
    21:00 +14°C° 0.1 mm 4 mps 759 mmHg 94%
    22:00 +14°C° 0.1 mm 4 mps 759 mmHg 94%
    23:00 +13°C° 0.1 mm 4 mps 759 mmHg 94%

    7 December, Wednesday

    Time Temperature Precipitation Wind Pressure Humidity
    00:00 +13°C° 0.1 mm 4 mps 759 mmHg 94%
    01:00 +13°C° 0.1 mm 3 mps 759 mmHg 94%
    02:00 +13°C° 0.1 mm 3 mps 759 mmHg 94%
    03:00 +13°C° 0.1 mm 2 mps 759 mmHg 94%
    04:00 +13°C° 0.1 mm 2 mps 759 mmHg 94%
    05:00 +13°C° 0.1 mm 2 mps 759 mmHg 95%
    06:00 +13°C° 0.1 mm 2 mps 759 mmHg 95%
    07:00 +14°C° 0.1 mm 2 mps 759 mmHg 90%
    08:00 +14°C° 0.1 mm 3 mps 760 mmHg 85%
    09:00 +17°C° 0.1 mm 3 mps 760 mmHg 81%
    10:00 +18°C° 0.1 mm 3 mps 760 mmHg 75%
    11:00 +18°C° 0.1 mm 3 mps 760 mmHg 69%
    12:00 +19°C° 0.1 mm 4 mps 759 mmHg 64%
    13:00 +19°C° 0 mm 4 mps 759 mmHg 64%
    14:00 +19°C° 0 mm 5 mps 759 mmHg 64%
    15:00 +19°C° 0 mm 5 mps 759 mmHg 64%
    16:00 +17°C° 0 mm 5 mps 759 mmHg 71%
    17:00 +16°C° 0 mm 5 mps 760 mmHg 79%
    18:00 +14°C° 0 mm 5 mps 760 mmHg 86%
    19:00 +14°C° 0 mm 5 mps 760 mmHg 87%
    20:00 +13°C° 0 mm 5 mps 761 mmHg 89%
    21:00 +13°C° 0 mm 4 mps 761 mmHg 91%
    22:00 +12°C° 0 mm 4 mps 761 mmHg 91%
    23:00 +12°C° 0 mm 4 mps 761 mmHg 91%

    8 December, Thursday

    Time Temperature Precipitation Wind Pressure Humidity
    00:00 +12°C° 0 mm 4 mps 762 mmHg 91%
    01:00 +11°C° 0 mm 4 mps 761 mmHg 91%
    02:00 +11°C° 0 mm 4 mps 761 mmHg 92%
    03:00 +11°C° 0 mm 4 mps 761 mmHg 92%
    04:00 +11°C° 0 mm 4 mps 761 mmHg 92%
    05:00 +10°C° 0 mm 3 mps 762 mmHg 91%
    06:00 +10°C° 0 mm 3 mps 762 mmHg 91%
    07:00 +11°C° 0 mm 3 mps 762 mmHg 85%
    08:00 +13°C° 0 mm 3 mps 763 mmHg 79%
    09:00 +14°C° 0 mm 3 mps 763 mmHg 72%
    10:00 +17°C° 0 mm 4 mps 763 mmHg 67%
    11:00 +18°C° 0 mm 4 mps 762 mmHg 62%
    12:00 +19°C° 0 mm 4 mps 762 mmHg 56%
    13:00 +19°C° 0 mm 4 mps 762 mmHg 58%
    14:00 +19°C° 0 mm 5 mps 762 mmHg 59%
    15:00 +19°C° 0 mm 5 mps 761 mmHg 61%
    16:00 +17°C° 0 mm 5 mps 762 mmHg 69%
    17:00 +16°C° 0 mm 5 mps 762 mmHg 77%
    18:00 +15°C° 0 mm 5 mps 762 mmHg 86%
    19:00 +14°C° 0 mm 4 mps 763 mmHg 88%
    20:00 +13°C° 0 mm 3 mps 763 mmHg 90%
    21:00 +13°C° 0 mm 3 mps 763 mmHg 93%
    22:00 +12°C° 0 mm 3 mps 763 mmHg 92%
    23:00 +13°C° 0 mm 2 mps 763 mmHg 92%
    Show more